Location: *
(3.0500°S, 78.5333°W)
Time: 00:29:17
(UTC+00:00)

Daily predictions for brighter satellites

Satellite Brightness Start Highest point End
(mag) Time Altitude Azimuth Time Altitude Azimuth Time Altitude Azimuth
Cosmos 1975 Rocket 3.8 00:02:59 10° NNE 00:06:40 28° E 00:08:00 24° ESE
Cosmos 1140 Rocket 3.6 00:04:37 10° NNW 00:09:42 74° WSW 00:14:49 10° S
Delta 198 4.5 00:05:39 10° WSW 00:12:00 74° NNW 00:17:46 11° ENE
Aurora 2 Rocket 3.8 00:11:22 10° NNW 00:13:44 18° NNE 00:14:36 17° NE
SJ 16-02 2.7 00:10:48 10° NNE 00:13:25 20° ENE 00:13:25 20° ENE
Ariane H10+ 1.0 00:11:58 10° WSW 00:14:46 49° S 00:14:56 48° SSE
ARIANE 3 DEB 4.0 00:16:02 10° NNW 00:17:05 12° N 00:17:17 12° NNE
NOSS 3-3 (C) 3.2 00:13:06 10° SSW 00:18:05 82° ESE 00:22:53 10° NNE
ARIANE 44L R/B 3.5 00:14:30 10° WNW 00:19:29 27° N 00:20:46 19° NE
Ariane H10 3.1 00:17:44 10° WNW 00:20:25 45° N 00:23:07 21° ENE
Cosmos 546 4.3 00:16:47 10° NW 00:20:26 88° NE 00:21:35 42° SE
SL-24 R/B 4.2 00:17:42 10° NNE 00:21:59 59° ESE 00:26:38 10° S
Cosmos 1818 4.2 00:19:23 10° N 00:24:17 35° ENE 00:25:17 33° E
Ariane H10+ 1.5 00:22:29 10° W 00:25:58 84° N 00:28:10 34° E
ARIANE 5 R/B 4.0 00:22:05 10° SSW 00:26:45 36° WSW 00:31:27 10° NW
Cosmos 2173 Rocket 4.0 00:28:40 10° S 00:34:36 54° E 00:40:31 10° NNE
Cosmos 2058 3.3 00:32:46 10° N 00:35:41 43° NE 00:35:41 43° NE
Sich 1 Rocket 4.0 00:37:46 44° NE 00:37:46 44° NE 00:41:03 10° NNE
Cosmos 2082 Rocket 2.1 00:31:40 10° SSW 00:37:22 89° ESE 00:43:04 10° NNE
Cosmos 1862 3.3 00:35:05 10° N 00:37:54 54° NNE 00:37:54 54° NNE
SAR-Lupe-1 4.2 00:39:47 61° N 00:39:47 61° N 00:42:46 10° N
NOAA 6 3.8 00:37:02 31° SSE 00:39:32 80° ENE 00:44:37 10° N
Ariane 44LP R/B 3.8 00:34:03 10° W 00:42:48 87° N 00:43:37 59° E
BLOCK DM-SL R/B 3.5 00:33:13 10° W 00:43:43 68° N 00:45:12 44° ENE
SJ-7 4.2 00:44:28 78° WNW 00:44:28 78° WNW 00:48:03 10° NNW
COSMOS 2455 3.2 00:38:58 10° NNW 00:44:53 63° WSW 00:48:42 23° S
Resurs 01 Rocket 2.0 00:47:09 34° SSW 00:48:53 61° WSW 00:53:09 10° NNW
BLOCK DM-SL R/B 2.8 00:47:40 10° WNW 00:49:24 35° NNW 00:49:24 35° NNW
Hubble Space Telescope 2.5 00:47:04 10° W 00:49:37 21° SW 00:49:37 21° SW
ARIANE 5 DEB (SYLDA) 2.9 00:50:45 10° W 00:52:59 51° WNW 00:52:59 51° WNW
GPS 2-17 Rocket1 4.1 00:52:27 10° WSW 00:54:58 32° SW 00:54:58 32° SW
Okean 2 Rocket 4.0 00:55:26 11° SSW 00:59:27 48° W 01:03:44 10° NNW
PSLV R/B 4.3 01:03:36 49° WNW 01:03:36 49° WNW 01:06:57 10° NNW
Mugunghwa Rocket 3.8 01:03:56 10° WNW 01:10:14 82° NNE 01:10:14 82° NNE
Cosmos 1375 Rocket 4.4 01:05:07 10° SSW 01:11:26 86° WNW 01:17:51 10° NNE
ATLAS 5 CENTAUR R/B 3.6 01:07:59 10° NW 01:13:39 39° WSW 01:16:40 26° SSW
Cosmos 1802 Rocket 4.0 01:14:54 70° N 01:14:54 70° N 01:20:18 10° N
Cosmos 1459 Rocket 4.4 01:10:09 10° SSW 01:16:24 60° W 01:22:32 10° N
Palapa B4 Rocket 4.3 01:06:38 10° WNW 01:17:36 85° SSW 01:18:15 77° SE
SJ 16-02 4.5 01:49:38 10° WNW 01:49:58 11° WNW 01:49:58 11° WNW
Chandra Rocket (1) 3.6 09:02:50 38° SE 09:02:50 38° SE 09:08:46 10° ESE
Cosmos 1943 Rocket 2.2 09:11:03 75° NNE 09:11:03 75° NNE 09:16:10 10° NNE
Hubble Space Telescope 3.2 09:15:27 15° SE 09:15:27 15° SE 09:16:39 10° ESE
OAO 2 Rocket 4.3 09:15:12 37° SE 09:15:12 37° SE 09:19:23 10° ENE
USA 267 4.4 09:12:56 10° N 09:17:18 26° NW 09:17:18 26° NW
Cosmos 1400 Rocket 4.3 09:15:30 10° NNE 09:17:56 32° NE 09:17:56 32° NE
FengYun 1-2 T 4.3 09:15:31 10° NNE 09:21:00 72° ESE 09:22:59 40° S
Meteor 2-5 Rocket 3.6 09:20:32 58° S 09:21:42 84° E 09:27:12 10° N
BREEZE-M DEB (TANK) 3.5 09:23:58 45° NE 09:23:58 45° NE 09:27:50 10° NE
Cosmos 2181 Rocket 3.9 09:21:22 36° S 09:24:04 88° E 09:30:10 10° N
USA 59 Rocket 1.6 09:20:18 23° S 09:24:35 51° ESE 09:29:41 10° NE
Cosmos 2228 Rocket 4.0 09:28:51 38° NNW 09:28:51 38° NNW 09:31:40 10° N
Cosmos 1048 Rocket 4.2 09:26:17 39° S 09:28:06 65° ESE 09:33:07 10° NNE
SL-16 R/B 3.3 09:22:34 10° SSE 09:28:38 51° ENE 09:34:39 10° N
Cosmos 2278 Rocket 2.0 09:30:53 57° SW 09:32:01 77° WNW 09:37:39 10° N
USA 281 3.2 09:27:32 10° S 09:33:54 54° WSW 09:40:15 10° NW
Cosmos 1610 Rocket 4.4 09:30:24 10° NNW 09:36:34 62° W 09:42:50 10° S
Cosmos 2285 Rocket 3.9 09:30:38 10° NNW 09:36:53 66° WSW 09:43:14 10° S
Cosmos 1939 Rocket 3.1 09:34:42 10° N 09:37:44 54° N 09:37:44 54° N
Exosat Rocket 4.0 09:38:01 46° WSW 09:39:01 50° W 09:44:10 10° N
Meteor 1-24 Rocket 4.1 09:49:30 36° W 09:49:30 36° W 09:54:18 10° NNW
Cosmos 962 Rocket 4.4 09:45:55 10° N 09:52:11 78° W 09:58:33 10° S
USA 238 DEB 3.4 09:53:55 31° SW 09:56:25 53° WNW 10:02:07 10° N
USA 238 3.4 09:54:02 31° SW 09:56:38 54° WNW 10:02:20 10° N
ARIANE 5 DEB (SYLDA) 3.4 09:55:57 32° NW 09:57:29 59° NNE 10:03:53 10° E
ASC 2 Rocket 3.8 10:00:21 30° W 10:02:16 49° NNW 10:07:51 10° NE
H-2A R/B 3.9 09:59:14 10° NNE 10:02:56 54° ESE 10:06:39 10° S
CZ-2C R/B 4.1 10:01:22 10° NW 10:02:50 15° NW 10:02:50 15° NW
SL-12 R/B(2) 3.8 10:00:45 12° SSW 10:07:31 79° WNW 10:14:59 10° NNE
ARIANE 5 DEB (SYLDA) 2.0 10:09:18 76° WNW 10:09:25 84° N 10:11:07 10° E
ARIANE 3 DEB 3.3 10:12:01 25° WSW 10:14:28 56° S 10:19:06 10° E
Meteor 1-28 Rocket 3.3 10:13:02 10° SSE 10:16:14 61° E 10:19:24 10° N
Cosmos 2341 Rocket 4.0 10:12:43 10° NNW 10:18:52 59° W 10:25:01 10° S
ARIANE 5 R/B 3.6 10:18:39 17° W 10:21:46 80° N 10:34:36 10° E
Nadezhda 3 Rocket 4.1 10:16:33 10° SSW 10:22:34 52° W 10:28:32 10° NNW
Ariane 42L R/B 2.8 10:20:22 16° W 10:24:25 63° S 10:28:14 10° ESE
ATLAS 2AS CENTAUR R/B 2.7 10:19:07 10° NNW 10:25:52 63° WSW 10:32:51 10° SSE
Cosmos 1733 Rocket 3.7 10:25:33 10° NNW 10:29:18 30° W 10:33:05 10° SSW
Ariane H10 4.2 10:17:44 10° W 10:30:38 46° N 10:34:12 10° ENE
Cosmos 2218 Rocket 4.2 10:27:05 10° NNW 10:33:13 51° W 10:39:21 10° SSW
BREEZE-M DEB (TANK) 2.4 10:31:25 10° NNW 10:33:58 77° NE 10:39:53 10° SE
SL-8 Rocket 4.4 10:28:52 10° NNW 10:34:28 37° W 10:40:06 10° SSW
Palapa 6 Rocket 3.1 10:29:48 10° WNW 10:34:46 59° SSW 10:38:55 10° SE
BLOCK DM-SL R/B 2.9 10:36:30 11° W 10:40:34 75° S 10:45:45 10° E
Cosmos 2369 Rocket 3.6 10:35:53 10° S 10:41:10 41° ESE 10:46:24 10° NE
BLOCK-DM UPPERSTAGE 4.4 10:26:50 10° W 10:41:13 74° N 10:45:27 10° E
Cosmos 1867 3.9 10:40:39 10° NW 10:45:43 42° WSW 10:50:48 10° S
UNK 3.9 10:46:17 10° S 10:50:43 50° WSW 10:55:07 10° NNW
Ariane H10-3 3.8 10:55:06 10° W 11:11:37 48° NNW 11:15:11 10° ENE
